Probability
0 0 0 0 0 0 0 0 0 0 0 0 0 0 0 0 0 0 0 0 0 0 0 0 0 0 0 0 0 0 0 0 0 0 0 0 0 0 0 0 0 0 0
0 0 0 0 0 0 0 0 0 0 0 0 0 0 0 0 0 0 0 0 0 0 0 0 0 0 0 0 0 0 0 0 0 0 0 0 0 0 0 0 0 0 0
0 0 0 0 0 0 0 0 0 0 0 0 0 0 0 0 0 0 0 0 0 0 0 0 0 0 0 0 0 0 0 0 0 0 0 0 0 0 0 0 0 0 0
0 0 0 0 0 0 0 0 0 0 0 0 0 0 0 0 0 0 0 0 0 0 0 0 0 0 0 0 0 0 0 0 0 0 0 0 0 0 0 0 0 0 0
0 0 0 0 0 0 0 0 0 0 0 0 0 0 0 0 0 0 0 0 0 0 0 0 0 0 0 0 0 0 0 0 0 0 0 0 0 0 0 0 0 0 0
0 0 0 0 0 0 0 0 0 0 0 0 0 0 0 0 0 0 0 0 0 0 0 0 0 0 0 0 0 0 0 0 0 0 0 0 0 0 0 0 0 0 0
0 0 0 0 0 0 0 0 0 0 0 0 0 0 0 0 0 0 0 0 0 0 0 0 0 0 0 0 0 0 0 0 0 0 0 0 0 0 0 0 0 0 0
0 0 0 0 0 0 0 0 0 0 0 0 0 0 0 0 0 0 0 0 0 0 0 0 0 0 0 0 0 0 0 0 0 0 0 0 0 0 0 0 0 0 0
0 0 0 0 0 0 0 0 0 0 0 0 0 0 0 0 0 0 0 0 0 0 0 0 0 0 0 0 0 0 0 0 0 0 0 0 0 0 0 0 0 0 0
0 0 0 0 0 0 0 0 0 0 0 0 0 0 0 0 0 0 0 0 0 0 0 0 0 0 0 0 0 0 0 0 0 0 0 0 0 0 0 0 0 0 0
0 0 0 0 0 0 0 0 0 0 0 0 0 0 0 0 0 0 0 0 0 0 0 0 0 0 0 0 0 0 0 0 0 0 0 0 0 0 0 0 0 0 0
0 0 0 0 0 0 0 0 0 0 0 0 0 0 0 0 0 0 0 0 0 0 0 0 0 0 0 0 0 0 0 0 0 0 0 0 0 0 0 0 0 0 0
0 0 0 0 0 0 0 0 0 0 0 0 0 0 0 0 0 0 0 0 0 0 0 0 0 0 0 0 0 0 0 0 0 0 0 0 0 0 0 0 0 0 0
0 0 0 0 0 0 0 0 0 0 0 0 0 0 0 0 0 0 0 0 0 0 0 0 0 0 0 0 0 0 0 0 0 0 0 0 0 0 0 0 0 0 0
0 0 0 0 0 0 0 0 0 0 0 0 0 0 0 0 0 0 0 0 0 0 0 0 0 0 0 0 0 0 0 0 0 0 0 0 0 0 0 0 0 0 0
0 0 0 0 0 0 0 0 0 0 0 0 0 0 0 0 0 0 0 0 0 0 0 0 0 0 0 0 0 0 0 0 0 0 0 0 0 0 0 0 0 0 0
0 0 0 0 0 0 0 0 0 0 0 0 0 0 0 0 0 0 0 0 0 0 0 0 0 0 0 0 0 0 0 0 0 0 0 0 0 0 0 0 0 0 0
0 0 0 0 0 0 0 0 0 0 0 0 0 0 0 0 0 0 0 0 0 0 0 0 0 0 0 0 0 0 0 0 0 0 0 0 0 0 0 0 0 0 0
0 0 0 0 0 0 0 0 0 0 0 0 0 0 0 0 0 0 0 0 0 0 0 0 0 0 0 0 0 0 0 0 0 0 0 0 0 0 0 0 0 0 0
0 0 0 0 0 0 0 0 0 0 0 0 0 0 0 0 0 0 0 0 0 0 0 0 0 0 0 0 0 0 0 0 0 0 0 0 0 0 0 0 0 0 0
0 0 0 0 0 0 0 0 0 0 0 0 0 0 0 0 0 0 0 0 0 0 0 0 0 0 0 0 0 0 0 0 0 0 0 0 0 0 0 0 0 0 0
0 0 0 0 0 0 0 0 0 0 0 0 0 0 0 0 0 0 0 0 0 0 0 0 0 0 0 0 0 0 0 0 0 0 0 0 0 0 0 0 0 0 0
0 0 0 0 0 0 0 0 0 0 0 0 0 0 0 0 0 0 0 0 0 0 0 0 0 0 0 0 0 0 0 0 0 0 0 0 0 0 0 0 0 0 0
0 0 0 0 0 0 0 0 0 0 0 0 0 0 0 0 0 0 0 0 0 0 0 0 0 0 0 0 0 0 0 0 0 0 0 0 0 0 0 0 0 0 0
0 0 0 0 0 0 0 0 0 0 0 0 0 0 0 0 0 0 0 0 0 0 0 0 0 0 0 0 0 0 0 0 0 0 0 0 0 0 0 0 0 0 0
0 0 0 0 0 0 0 0 0 0 0 0 0 0 0 0 0 0 0 0 0 0 0 0 0 0 0 0 0 0 0 0 0 0 0 0 0 0 0 0 0 0 0
Height
5692 5690 5687 5684 5682 5679 5676 5673 5670 5667 5663 5660 5657 5654 5651 5647 5644 5640 5637 5633 5629 5626 5622 5619 5616 5614 5611 5609 5607 5605 5604 5603 5602 5602 5600 5600 5600 5600 5601 5601 5602 5603 5603
5683 5681 5678 5675 5672 5669 5666 5662 5659 5656 5653 5650 5646 5643 5640 5637 5633 5630 5626 5622 5618 5614 5611 5607 5604 5601 5598 5596 5594 5592 5590 5588 5588 5587 5586 5585 5585 5585 5586 5586 5586 5587 5587
5674 5672 5669 5666 5662 5659 5655 5652 5649 5645 5642 5639 5636 5633 5630 5626 5622 5619 5615 5611 5606 5602 5599 5595 5592 5589 5586 5583 5581 5578 5576 5575 5573 5572 5571 5570 5570 5570 5570 5570 5570 5570 5570
5665 5662 5659 5656 5652 5649 5645 5641 5638 5635 5632 5629 5625 5622 5619 5615 5611 5607 5603 5599 5595 5591 5587 5583 5579 5576 5572 5569 5567 5564 5562 5560 5558 5557 5556 5555 5554 5553 5553 5554 5554 5553 5553
5656 5653 5649 5646 5642 5638 5635 5631 5628 5624 5621 5618 5615 5611 5607 5604 5600 5596 5592 5588 5583 5579 5575 5571 5567 5563 5559 5556 5553 5550 5548 5546 5544 5542 5541 5539 5538 5537 5536 5536 5536 5536 5536
5646 5643 5639 5636 5632 5629 5625 5621 5618 5614 5611 5607 5604 5600 5597 5593 5589 5585 5581 5576 5572 5568 5563 5559 5555 5551 5547 5543 5539 5536 5533 5531 5529 5527 5525 5523 5522 5520 5519 5518 5518 5518 5519
5636 5633 5629 5626 5622 5619 5615 5611 5607 5604 5600 5597 5593 5589 5586 5582 5578 5574 5569 5565 5561 5556 5552 5547 5543 5538 5534 5530 5526 5522 5519 5516 5514 5512 5509 5507 5505 5504 5503 5502 5500 5500 5500
5626 5622 5619 5615 5612 5608 5604 5601 5597 5593 5589 5586 5582 5579 5575 5571 5567 5563 5558 5554 5549 5545 5540 5536 5531 5526 5522 5518 5513 5509 5505 5502 5499 5497 5494 5492 5489 5486 5485 5484 5482 5482 5482
5616 5612 5608 5605 5601 5598 5594 5590 5586 5583 5579 5575 5572 5568 5564 5560 5556 5551 5547 5543 5538 5533 5529 5524 5519 5515 5510 5506 5502 5497 5493 5489 5485 5482 5479 5475 5473 5470 5468 5467 5466 5465 5465
5605 5601 5598 5594 5591 5587 5583 5580 5576 5572 5568 5564 5561 5557 5553 5549 5545 5540 5536 5531 5527 5522 5517 5513 5508 5503 5498 5493 5489 5485 5481 5477 5472 5468 5464 5461 5458 5455 5452 5450 5449 5448 5447
5594 5591 5587 5583 5580 5576 5572 5569 5565 5561 5557 5554 5550 5546 5542 5538 5534 5529 5525 5520 5516 5511 5506 5501 5496 5491 5486 5481 5476 5472 5468 5463 5459 5455 5451 5447 5444 5441 5438 5435 5433 5432 5431
5583 5579 5576 5572 5568 5565 5561 5558 5554 5550 5546 5542 5538 5535 5531 5527 5522 5518 5513 5509 5504 5500 5495 5490 5484 5479 5474 5469 5464 5460 5455 5450 5445 5441 5438 5434 5430 5427 5424 5421 5419 5417 5415
5571 5568 5564 5561 5557 5554 5550 5546 5542 5539 5535 5531 5527 5523 5519 5515 5511 5507 5502 5497 5493 5488 5483 5478 5473 5468 5462 5457 5452 5447 5442 5437 5433 5429 5425 5421 5417 5413 5410 5408 5405 5403 5401
5559 5555 5552 5549 5545 5542 5538 5535 5531 5527 5523 5519 5516 5512 5508 5504 5499 5495 5490 5486 5481 5476 5472 5467 5461 5456 5450 5445 5440 5435 5430 5425 5420 5416 5412 5408 5404 5400 5397 5394 5392 5389 5388
5546 5543 5540 5537 5533 5530 5527 5523 5519 5515 5511 5508 5504 5500 5496 5492 5488 5483 5479 5474 5469 5465 5460 5455 5449 5444 5439 5433 5428 5422 5417 5412 5408 5403 5399 5395 5391 5387 5384 5381 5378 5376 5374
5534 5531 5528 5525 5521 5518 5514 5511 5507 5504 5500 5496 5492 5488 5484 5481 5476 5472 5467 5462 5457 5453 5448 5443 5438 5432 5427 5421 5416 5411 5405 5400 5396 5391 5387 5383 5379 5376 5372 5369 5366 5363 5360
5522 5518 5515 5512 5509 5505 5502 5499 5495 5492 5488 5484 5480 5476 5473 5469 5464 5460 5455 5451 5446 5441 5436 5431 5426 5421 5415 5410 5404 5399 5394 5389 5384 5380 5376 5372 5368 5365 5361 5358 5354 5351 5348
5509 5506 5502 5499 5496 5493 5490 5486 5483 5480 5476 5472 5468 5465 5461 5457 5453 5448 5444 5439 5434 5429 5424 5419 5414 5409 5404 5399 5393 5388 5383 5379 5374 5370 5366 5362 5358 5354 5350 5347 5343 5339 5337
5496 5493 5490 5487 5484 5481 5477 5474 5471 5467 5464 5460 5457 5453 5449 5445 5441 5436 5432 5427 5422 5418 5413 5408 5403 5398 5393 5388 5383 5378 5373 5368 5364 5360 5355 5351 5347 5343 5340 5336 5332 5329 5325
5484 5481 5477 5475 5472 5469 5465 5462 5459 5456 5452 5449 5445 5441 5437 5433 5429 5425 5420 5415 5411 5406 5402 5397 5392 5387 5382 5377 5372 5367 5362 5358 5353 5349 5345 5341 5337 5333 5329 5326 5322 5319 5315
5471 5468 5465 5463 5460 5457 5454 5451 5448 5444 5441 5437 5434 5430 5426 5422 5418 5413 5409 5405 5400 5395 5391 5386 5382 5376 5371 5366 5361 5357 5352 5347 5343 5339 5335 5330 5326 5323 5319 5315 5312 5308 5306
5459 5456 5453 5451 5448 5445 5443 5439 5436 5433 5429 5426 5422 5418 5415 5411 5407 5403 5398 5394 5389 5385 5381 5376 5371 5366 5361 5356 5351 5346 5342 5337 5333 5329 5325 5320 5317 5313 5309 5306 5302 5299 5297
5447 5444 5442 5439 5437 5434 5431 5428 5425 5422 5418 5415 5411 5408 5404 5400 5396 5392 5388 5384 5379 5375 5371 5366 5361 5356 5350 5345 5341 5336 5332 5328 5324 5320 5316 5312 5308 5304 5301 5297 5294 5292 5289
5434 5432 5429 5427 5425 5422 5419 5417 5414 5411 5407 5404 5401 5398 5394 5390 5386 5382 5378 5374 5370 5365 5361 5356 5351 5346 5341 5336 5331 5327 5323 5319 5315 5311 5307 5304 5300 5296 5293 5290 5287 5284 5282
5422 5420 5417 5415 5413 5410 5408 5405 5402 5400 5397 5394 5391 5388 5384 5380 5377 5373 5369 5365 5360 5356 5351 5347 5342 5336 5332 5327 5323 5319 5315 5311 5307 5304 5300 5297 5293 5290 5287 5284 5281 5278 5276
5410 5408 5406 5403 5401 5399 5397 5394 5392 5389 5387 5384 5381 5378 5375 5371 5368 5364 5360 5356 5351 5347 5342 5338 5333 5328 5324 5320 5316 5312 5308 5304 5301 5297 5294 5291 5287 5284 5281 5278 5276 5273 5271
Wind_Speed
34 35 36 37 37 38 39 40 41 41 41 41 41 40 40 40 40 40 40 41 41 42 42 43 44 44 45 46 46 46 47 47 47 48 49 50 51 52 53 54 54 55 55
33 34 35 36 37 38 39 40 40 40 40 40 40 40 39 40 41 41 42 42 42 43 44 44 44 44 44 45 46 46 47 47 48 49 50 51 52 53 54 54 55 56 56
34 35 35 36 37 38 39 39 39 39 39 39 39 40 40 41 42 43 43 43 43 43 44 44 44 44 44 45 46 47 47 48 48 49 51 52 53 54 54 55 56 57 58
35 35 36 36 37 37 38 38 38 39 39 39 40 41 41 42 42 42 43 42 43 43 43 44 44 45 45 46 46 47 48 49 49 50 50 52 53 54 54 55 56 57 59
34 35 35 36 36 37 37 38 38 38 39 40 40 40 40 41 42 42 42 43 43 43 44 44 44 45 45 46 46 47 48 49 49 50 50 51 52 54 55 55 56 56 58
35 35 36 36 37 37 37 38 38 39 39 39 40 40 41 41 41 42 42 43 42 43 43 43 44 44 45 46 46 47 47 48 49 50 50 51 51 53 54 55 56 56 56
36 36 36 37 37 37 37 38 38 38 39 39 39 39 40 40 41 41 42 42 42 42 43 43 44 44 44 45 45 46 47 47 48 49 49 50 51 52 53 54 55 55 54
37 37 37 37 37 38 38 38 38 38 39 39 38 39 39 40 41 41 41 41 42 42 43 43 43 43 43 43 43 43 44 45 46 47 48 50 51 53 53 53 53 54 54
38 38 38 38 37 38 38 38 38 38 38 38 39 39 39 40 40 40 41 41 42 42 43 43 43 43 43 43 42 42 43 44 45 47 48 48 50 51 51 52 52 53 53
38 38 39 39 39 39 39 39 38 39 39 39 39 39 40 40 40 40 40 41 41 42 42 43 43 43 43 43 42 43 43 44 46 47 47 47 47 48 49 50 50 50 51
39 39 39 40 40 39 39 39 39 39 39 39 39 40 40 40 40 41 40 40 41 41 42 42 43 43 43 43 43 43 44 45 45 46 45 45 45 45 45 46 47 47 48
41 41 41 41 40 40 39 39 39 39 39 39 39 39 40 40 40 40 40 41 41 41 42 42 43 43 43 43 43 43 44 44 44 43 43 43 43 44 44 44 44 45 46
43 42 41 41 41 40 40 40 40 40 40 40 40 40 40 40 40 40 41 41 41 42 42 43 43 43 43 43 43 43 43 43 42 42 42 42 42 42 42 42 42 42 42
42 41 41 41 41 41 41 40 40 40 40 40 40 40 40 40 40 41 41 41 41 42 42 43 43 43 43 43 43 43 43 42 41 41 41 41 41 41 41 41 40 40 40
41 40 41 41 41 41 41 41 41 41 41 41 41 41 40 40 40 41 41 42 42 43 43 43 43 43 43 43 43 43 42 42 41 41 40 40 39 39 38 38 38 38 39
41 40 40 41 41 41 41 41 41 41 41 41 41 40 40 40 41 41 41 42 42 43 43 43 43 43 43 42 42 42 41 40 39 38 38 37 36 36 35 36 36 37 37
41 41 41 41 41 41 41 41 41 41 41 41 40 40 40 40 41 41 41 42 42 42 42 42 42 42 42 41 41 40 39 37 36 36 35 35 35 34 34 34 34 34 35
42 41 41 41 41 40 40 40 40 40 40 40 40 40 40 40 40 41 41 41 42 42 41 40 40 40 39 39 39 37 36 36 35 35 35 35 34 33 33 34 34 34 34
41 41 40 40 40 40 40 39 39 40 39 39 39 39 39 40 40 40 40 41 41 40 39 38 38 38 38 38 37 36 35 35 35 35 35 34 33 33 33 33 33 33 33
40 40 39 39 39 39 39 38 39 39 39 39 39 39 39 39 38 38 38 38 38 38 37 36 37 37 37 37 36 36 35 35 34 34 34 33 33 32 32 32 32 31 31
39 39 38 38 38 38 38 38 38 38 38 38 38 38 37 37 37 37 37 37 37 36 35 36 36 37 37 36 36 35 34 34 33 33 33 32 31 31 31 31 31 30 29
38 38 38 38 38 38 37 37 38 37 37 36 36 36 36 36 36 36 36 36 35 35 35 35 36 36 36 36 34 33 32 32 31 31 31 30 30 29 29 28 27 26 26
38 38 38 37 37 37 37 37 37 36 35 35 35 35 35 35 34 34 35 34 34 34 34 34 35 35 35 34 32 31 30 29 29 29 29 28 27 27 26 25 24 24 23
38 38 37 37 36 36 36 36 35 34 34 34 33 33 33 33 33 33 33 33 32 33 33 34 34 34 33 31 30 29 28 27 28 27 27 26 25 24 23 22 22 21 21
38 37 36 36 36 35 35 34 33 33 32 32 32 32 32 32 31 31 31 32 32 32 33 33 32 31 29 28 27 26 26 26 26 25 23 22 22 21 20 20 19 19 19
36 35 35 34 34 33 32 32 31 31 30 30 30 30 30 30 30 30 31 31 31 31 31 30 29 28 26 25 24 24 24 24 23 22 21 20 20 19 18 18 17 17 17
Wind_Direction
285 286 286 287 287 287 288 288 288 288 288 288 288 288 289 290 291 291 291 291 290 290 289 288 286 284 282 279 277 276 276 273 271 268 267 266 266 265 265 265 264 264 263
287 288 288 289 289 288 289 288 288 289 288 288 288 288 289 290 291 292 292 292 291 290 290 289 288 286 283 281 279 278 277 275 272 270 268 267 267 266 266 266 265 264 262
288 289 290 290 291 290 290 289 289 289 289 288 288 289 289 290 291 292 293 293 292 291 290 290 289 287 285 283 281 279 277 276 274 272 270 269 268 268 267 267 266 265 262
288 289 290 291 292 291 290 290 289 289 289 289 290 290 290 291 293 294 294 294 294 293 292 291 289 288 287 285 283 281 279 277 276 275 273 271 270 269 268 268 267 266 264
291 291 292 293 293 293 292 292 291 290 290 290 291 292 292 293 294 295 294 294 294 294 294 292 291 290 289 287 285 283 282 280 278 277 276 274 272 271 269 269 268 267 266
292 293 293 294 293 293 293 292 291 291 291 291 291 292 293 294 295 295 295 295 294 295 295 294 293 292 291 290 288 286 284 282 280 278 277 276 275 274 272 270 269 268 267
292 292 293 293 293 292 292 292 292 292 292 292 292 293 294 295 296 296 296 296 296 296 296 295 295 294 293 292 290 288 286 284 283 281 279 278 277 275 274 272 271 269 267
293 292 293 293 293 292 292 292 292 292 292 292 292 293 294 295 295 296 296 296 296 297 296 296 296 296 294 293 293 291 289 288 286 284 283 281 279 278 276 274 272 270 268
292 292 292 293 293 293 293 293 292 291 292 292 292 293 294 295 295 296 297 297 297 298 297 297 297 297 296 294 293 292 291 290 289 288 286 284 282 279 278 276 274 272 269
291 291 291 292 293 293 292 292 292 292 292 292 292 293 294 295 295 297 298 297 298 298 298 298 298 298 297 296 295 293 292 292 291 290 288 285 283 282 280 278 276 274 271
291 291 291 292 292 293 292 292 292 292 293 293 293 294 294 295 296 297 297 298 298 298 299 299 299 299 298 297 297 296 295 294 292 291 289 287 285 283 282 280 278 276 273
290 291 291 291 291 292 292 292 292 293 293 294 294 294 294 295 296 296 297 297 298 298 299 300 300 300 299 298 298 298 297 296 294 291 290 289 287 284 283 281 279 278 276
290 290 290 290 291 292 292 292 292 293 293 293 293 294 295 295 295 296 297 298 297 297 298 299 299 299 299 299 299 299 299 297 295 293 292 290 288 286 283 282 280 279 277
290 290 290 290 291 292 292 292 292 292 293 293 293 294 295 295 296 297 297 297 297 298 298 299 300 300 300 299 299 300 300 298 296 294 293 291 289 287 285 283 281 279 278
289 289 289 290 290 290 291 291 291 291 292 292 293 293 294 295 297 297 298 297 297 298 298 299 300 300 300 300 300 300 300 299 298 296 294 292 290 288 286 285 282 281 279
289 289 289 290 290 290 290 291 291 291 291 292 293 293 293 295 296 297 297 298 298 298 298 299 299 300 300 300 300 300 300 299 298 297 296 294 291 289 288 287 285 283 281
289 289 290 289 289 290 290 290 291 291 291 292 292 292 293 294 296 296 297 298 298 298 299 299 300 300 300 301 301 301 300 299 299 298 297 296 294 291 290 290 288 286 284
289 289 289 290 289 290 290 290 291 291 292 292 293 293 293 294 295 296 297 297 298 299 299 299 300 301 301 302 302 301 300 298 298 298 297 296 294 292 291 291 290 287 286
289 289 289 290 290 290 290 291 291 292 292 293 293 294 294 294 295 296 297 298 298 299 299 300 301 302 303 303 302 301 300 298 297 297 297 297 295 294 292 292 291 290 287
290 289 289 289 290 290 290 291 292 292 292 293 294 294 295 295 296 297 298 299 299 300 300 301 302 303 303 303 301 300 299 297 297 297 297 297 296 294 293 292 291 290 288
290 289 289 290 290 290 291 292 292 292 293 293 294 295 295 296 297 298 299 300 300 300 300 301 303 304 304 303 301 301 299 298 298 298 297 296 296 295 294 293 290 289 287
290 290 289 290 290 291 292 292 293 293 293 294 295 295 296 297 298 298 300 301 301 301 301 303 304 305 305 304 303 302 301 299 299 299 299 297 296 296 296 294 292 289 288
290 289 288 288 289 290 291 293 293 293 293 294 295 296 297 298 298 299 300 301 301 301 303 304 305 306 306 305 303 303 301 300 300 301 300 299 298 297 296 295 293 291 289
289 288 288 287 288 289 290 292 293 292 292 293 294 296 297 298 299 300 301 302 302 302 304 305 306 307 306 306 304 302 302 302 303 303 302 301 300 298 296 295 294 293 291
288 288 287 286 287 288 290 291 291 291 291 293 294 296 298 299 300 302 303 303 303 304 305 307 308 308 307 306 305 304 303 304 305 305 305 304 303 301 299 297 296 296 294
287 286 285 286 287 288 289 290 291 291 292 293 295 296 298 300 301 303 304 305 305 306 307 309 309 309 309 307 307 307 306 307 307 307 306 306 306 305 302 300 299 297 295